| time (UTC) | temp C | wind direction | speed KPH | gust KPH | rain 1hr cm | rain 24hr cm | rain mn cm | humidity % | barometer mb |
| 20260502195723 | 15 | 321 | 4.8 | 9.7 | 0.15 | 0.28 | 0.43 | 91 | 1013.8 |
| 20260502194721 | 15 | 59 | 3.2 | 9.7 | 0.15 | 0.28 | 0.43 | 91 | 1013.9 |
| 20260502193722 | 15 | 78 | 6.4 | 11.3 | 0.15 | 0.28 | 0.41 | 90 | 1014.1 |
| 20260502193200 | 16 | 123 | 4.8 | 9.7 | 0.15 | 0.28 | 0.38 | 90 | 1014.2 |
| 20260502191720 | 16 | 141 | 3.2 | 8.0 | 0.15 | 0.28 | 0.36 | 89 | 1014.2 |
| 20260502191655 | 16 | 138 | 6.4 | 19.3 | 0.10 | 0.28 | 0.33 | 88 | 1014.0 |
| 20260502185721 | 16 | 220 | 9.7 | 17.7 | 0.05 | 0.23 | 0.28 | 88 | 1014.1 |
| 20260502184720 | 16 | 178 | 4.8 | 16.1 | 0.05 | 0.23 | 0.25 | 86 | 1014.3 |
| 20260502183719 | 16 | 207 | 11.3 | 19.3 | 0.05 | 0.23 | 0.25 | 85 | 1014.5 |
| 20260502182719 | 16 | 206 | 11.3 | 22.5 | 0.05 | 0.23 | 0.23 | 82 | 1014.6 |
| 20260502181719 | 16 | 193 | 11.3 | 22.5 | 0.08 | 0.23 | 0.23 | 80 | 1014.3 |
| 20260502181157 | 17 | 192 | 12.9 | 24.1 | 0.18 | 0.23 | 0.23 | 77 | 1014.2 |
| 20260502170201 | 22 | 147 | 3.2 | 8.0 | 0.03 | 0.00 | 0.03 | 68 | 1013.6 |
| 20260502163718 | 23 | 162 | 6.4 | 22.5 | 0.00 | 0.00 | 0.00 | 61 | 1013.8 |
| 20260502163152 | 23 | 113 | 8.0 | 16.1 | 0.00 | 0.00 | 0.00 | 59 | 1014.0 |
| 20260502162155 | 24 | 24 | 1.6 | 8.0 | 0.00 | 0.00 | 0.00 | 54 | 1014.0 |
| 20260502160719 | 25 | 309 | 4.8 | 6.4 | 0.00 | 0.00 | 0.00 | 52 | 1013.9 |
| 20260502160634 | 25 | 274 | 6.4 | 9.7 | 0.00 | 0.00 | 0.00 | 53 | 1014.2 |
| 20260502151714 | 25 | 233 | 4.8 | 14.5 | 0.00 | 0.00 | 0.00 | 52 | 1014.7 |
| 20260502151155 | 25 | 221 | 8.0 | 16.1 | 0.00 | 0.00 | 0.00 | 51 | 1014.8 |
| 20260502150148 | 25 | 255 | 6.4 | 14.5 | 0.00 | 0.00 | 0.00 | 52 | 1015.0 |
| 20260502123711 | 25 | 250 | 11.3 | 24.1 | 0.00 | 0.00 | 0.00 | 52 | 1016.6 |
| 20260502122712 | 25 | 171 | 12.9 | 19.3 | 0.00 | 0.00 | 0.00 | 52 | 1016.8 |
| 20260502122148 | 25 | 240 | 8.0 | 25.7 | 0.00 | 0.00 | 0.00 | 53 | 1017.1 |
| 20260502120711 | 25 | 233 | 11.3 | 24.1 | 0.00 | 0.00 | 0.00 | 52 | 1017.1 |
| 20260502120145 | 25 | 183 | 8.0 | 22.5 | 0.00 | 0.00 | 0.00 | 53 | 1017.1 |
| 20260502114709 | 25 | 234 | 12.9 | 22.5 | 0.00 | 0.00 | 0.00 | 54 | 1017.1 |
| 20260502114155 | 25 | 237 | 8.0 | 17.7 | 0.00 | 0.00 | 0.00 | 54 | 1017.3 |
| 20260502112712 | 25 | 244 | 9.7 | 20.9 | 0.00 | 0.00 | 0.00 | 53 | 1017.5 |
| 20260502111709 | 24 | 276 | 9.7 | 20.9 | 0.00 | 0.00 | 0.00 | 54 | 1017.5 |
| 20260502110710 | 24 | 245 | 8.0 | 20.9 | 0.00 | 0.00 | 0.00 | 56 | 1017.6 |
| 20260502110151 | 23 | 186 | 8.0 | 20.9 | 0.00 | 0.00 | 0.00 | 55 | 1017.7 |
| 20260502104708 | 23 | 179 | 6.4 | 25.7 | 0.00 | 0.00 | 0.00 | 54 | 1017.8 |
| 20260502103710 | 23 | 203 | 8.0 | 19.3 | 0.00 | 0.00 | 0.00 | 57 | 1018.0 |
| 20260502103142 | 23 | 250 | 8.0 | 20.9 | 0.00 | 0.00 | 0.00 | 57 | 1018.1 |
| 20260502101708 | 23 | 238 | 6.4 | 19.3 | 0.00 | 0.00 | 0.00 | 57 | 1018.1 |
| 20260502100707 | 22 | 228 | 11.3 | 17.7 | 0.00 | 0.00 | 0.00 | 58 | 1018.3 |
| 20260502090709 | 20 | 237 | 6.4 | 11.3 | 0.00 | 0.00 | 0.00 | 61 | 1018.6 |
| 20260502070704 | 16 | 223 | 8.0 | 11.3 | 0.00 | 0.00 | 0.00 | 61 | 1019.0 |
| 20260502065706 | 15 | 135 | 4.8 | 8.0 | 0.00 | 0.00 | 0.00 | 63 | 1019.1 |
| 20260502064706 | 14 | 149 | 1.6 | 4.8 | 0.00 | 0.00 | 0.00 | 62 | 1019.1 |
| 20260502063704 | 13 | 161 | 1.6 | 3.2 | 0.00 | 0.00 | 0.00 | 64 | 1019.1 |
| 20260502062704 | 13 | 140 | 3.2 | 4.8 | 0.00 | 0.00 | 0.00 | 65 | 1019.0 |
| 20260502062629 | 13 | 140 | 1.6 | 4.8 | 0.00 | 0.00 | 0.00 | 65 | 1019.0 |
| 20260502061621 | 12 | 141 | 1.6 | 4.8 | 0.00 | 0.00 | 0.00 | 66 | 1019.0 |
| 20260502060620 | 12 | 148 | 1.6 | 8.0 | 0.00 | 0.00 | 0.00 | 66 | 1019.0 |
| 20260502054702 | 12 | 138 | 4.8 | 9.7 | 0.00 | 0.00 | 0.00 | 65 | 1019.0 |
| 20260502053705 | 12 | 155 | 3.2 | 6.4 | 0.00 | 0.00 | 0.00 | 67 | 1019.0 |
| 20260502052703 | 12 | 145 | 0.0 | 4.8 | 0.00 | 0.00 | 0.00 | 67 | 1018.9 |
| 20260502051702 | 12 | 144 | 3.2 | 6.4 | 0.00 | 0.00 | 0.00 | 66 | 1018.7 |
| 20260502050701 | 11 | 125 | 3.2 | 6.4 | 0.00 | 0.00 | 0.00 | 68 | 1018.7 |
| 20260502045700 | 10 | 131 | 3.2 | 8.0 | 0.00 | 0.00 | 0.00 | 69 | 1018.9 |
| 20260502044700 | 10 | 144 | 6.4 | 8.0 | 0.00 | 0.00 | 0.00 | 69 | 1018.8 |
| 20260502044137 | 10 | 147 | 6.4 | 9.7 | 0.00 | 0.00 | 0.00 | 68 | 1018.8 |
| 20260502042700 | 10 | 131 | 6.4 | 8.0 | 0.00 | 0.00 | 0.00 | 68 | 1018.9 |
| 20260502041659 | 10 | 158 | 4.8 | 8.0 | 0.00 | 0.00 | 0.00 | 68 | 1018.9 |
| 20260502040700 | 10 | 162 | 4.8 | 9.7 | 0.00 | 0.00 | 0.00 | 68 | 1019.0 |
| 20260502035701 | 10 | 142 | 8.0 | 9.7 | 0.00 | 0.00 | 0.00 | 70 | 1019.1 |
| 20260502034704 | 9 | 140 | 4.8 | 6.4 | 0.00 | 0.00 | 0.00 | 72 | 1019.0 |
| 20260502033700 | 9 | 141 | 1.6 | 4.8 | 0.00 | 0.00 | 0.00 | 71 | 1019.2 |
| 20260502032659 | 9 | 142 | 3.2 | 6.4 | 0.00 | 0.00 | 0.00 | 71 | 1019.1 |
| 20260502031701 | 9 | 142 | 1.6 | 6.4 | 0.00 | 0.00 | 0.00 | 72 | 1019.2 |
| 20260502030659 | 8 | 148 | 3.2 | 6.4 | 0.00 | 0.00 | 0.00 | 72 | 1019.1 |
| 20260502025659 | 8 | 140 | 3.2 | 4.8 | 0.00 | 0.00 | 0.00 | 73 | 1019.2 |
| 20260502025135 | 8 | 138 | 3.2 | 4.8 | 0.00 | 0.00 | 0.00 | 73 | 1019.3 |
| 20260502023658 | 8 | 114 | 1.6 | 3.2 | 0.00 | 0.00 | 0.00 | 74 | 1019.4 |
| 20260502023137 | 8 | 114 | 0.0 | 3.2 | 0.00 | 0.00 | 0.00 | 74 | 1019.4 |
| 20260502021659 | 8 | 114 | 0.0 | 3.2 | 0.00 | 0.00 | 0.00 | 74 | 1019.5 |
| 20260502020658 | 8 | 113 | 0.0 | 4.8 | 0.00 | 0.00 | 0.00 | 74 | 1019.6 |
| 20260502020131 | 8 | 114 | 0.0 | 4.8 | 0.00 | 0.00 | 0.00 | 74 | 1019.6 |
| 20260502015133 | 8 | 114 | 0.0 | 3.2 | 0.00 | 0.00 | 0.00 | 73 | 1019.8 |
| 20260502013658 | 8 | 114 | 0.0 | 4.8 | 0.00 | 0.00 | 0.00 | 73 | 1019.8 |
| 20260502012657 | 8 | 0 | 1.6 | 3.2 | 0.00 | 0.00 | 0.00 | 73 | 1019.8 |
| 20260502012147 | 9 | 0 | 1.6 | 4.8 | 0.00 | 0.00 | 0.00 | 72 | 1019.8 |
| 20260502010658 | 9 | 114 | 0.0 | 0.0 | 0.00 | 0.00 | 0.00 | 73 | 1019.8 |
| 20260502005657 | 9 | 114 | 0.0 | 0.0 | 0.00 | 0.00 | 0.00 | 73 | 1020.0 |
| 20260502004656 | 9 | 114 | 0.0 | 0.0 | 0.00 | 0.00 | 0.00 | 71 | 1020.1 |
| 20260502003656 | 9 | 114 | 0.0 | 0.0 | 0.00 | 0.00 | 0.00 | 72 | 1020.1 |
| 20260502002655 | 10 | 114 | 0.0 | 0.0 | 0.00 | 0.00 | 0.00 | 71 | 1020.2 |
| 20260502001655 | 10 | 114 | 0.0 | 0.0 | 0.00 | 0.00 | 0.00 | 70 | 1020.3 |
| 20260502000655 | 10 | 114 | 0.0 | 1.6 | 0.00 | 0.00 | 0.00 | 70 | 1020.3 |
| 20260502000143 | 10 | 114 | 1.6 | 3.2 | 0.00 | 0.00 | 0.00 | 70 | 1020.4 |
| 20260501234655 | 10 | 114 | 0.0 | 0.0 | 0.00 | 0.00 | 0.00 | 70 | 1020.6 |
| 20260501233655 | 10 | 114 | 0.0 | 0.0 | 0.00 | 0.00 | 0.00 | 69 | 1020.6 |
| 20260501232659 | 10 | 114 | 0.0 | 1.6 | 0.00 | 0.00 | 0.00 | 68 | 1020.7 |
| 20260501231656 | 11 | 114 | 0.0 | 1.6 | 0.00 | 0.00 | 0.00 | 68 | 1020.8 |
| 20260501230653 | 11 | 114 | 0.0 | 3.2 | 0.00 | 0.00 | 0.00 | 68 | 1020.9 |
| 20260501225654 | 11 | 114 | 0.0 | 1.6 | 0.00 | 0.00 | 0.00 | 67 | 1020.9 |
| 20260501224654 | 11 | 114 | 0.0 | 1.6 | 0.00 | 0.00 | 0.00 | 67 | 1021.0 |
| 20260501224132 | 11 | 114 | 0.0 | 1.6 | 0.00 | 0.00 | 0.00 | 66 | 1021.0 |
| 20260501222653 | 12 | 114 | 1.6 | 3.2 | 0.00 | 0.00 | 0.00 | 66 | 1020.9 |
| 20260501221652 | 12 | 114 | 1.6 | 3.2 | 0.00 | 0.00 | 0.00 | 65 | 1020.9 |
| 20260501220653 | 12 | 114 | 1.6 | 3.2 | 0.00 | 0.00 | 0.00 | 63 | 1020.9 |
| 20260501215654 | 13 | 114 | 1.6 | 4.8 | 0.00 | 0.00 | 0.00 | 64 | 1021.0 |
| 20260501215130 | 13 | 114 | 3.2 | 6.4 | 0.00 | 0.00 | 0.00 | 61 | 1020.9 |
| 20260501213652 | 13 | 124 | 4.8 | 6.4 | 0.00 | 0.00 | 0.00 | 59 | 1021.0 |
| 20260501212651 | 14 | 147 | 3.2 | 4.8 | 0.00 | 0.00 | 0.00 | 58 | 1021.0 |
| 20260501211651 | 15 | 147 | 3.2 | 6.4 | 0.00 | 0.00 | 0.00 | 57 | 1021.1 |
| 20260501210652 | 15 | 155 | 4.8 | 8.0 | 0.00 | 0.00 | 0.00 | 58 | 1021.1 |
| 20260501205652 | 15 | 148 | 4.8 | 8.0 | 0.00 | 0.00 | 0.00 | 53 | 1021.1 |
| 20260501204652 | 15 | 147 | 3.2 | 6.4 | 0.00 | 0.00 | 0.00 | 53 | 1021.0 |
| 20260501204128 | 15 | 185 | 3.2 | 6.4 | 0.00 | 0.00 | 0.00 | 53 | 1021.1 |
| 20260501202652 | 16 | 168 | 1.6 | 4.8 | 0.00 | 0.00 | 0.00 | 51 | 1021.1 |
| 20260501201652 | 16 | 159 | 3.2 | 6.4 | 0.00 | 0.00 | 0.00 | 49 | 1021.1 |
| 20260501200649 | 17 | 137 | 4.8 | 8.0 | 0.00 | 0.00 | 0.00 | 46 | 1020.9 |